Wind_Speed
14 15 15 15 16 16 16 16 16 16 16 16 16 16 16 16 15 15 15 15 14 15 14 15 15 16 16 16 16 17 17 18 17 17 18 18 19 20 20 19 20 20 19
15 16 16 16 17 17 17 17 17 17 17 17 17 17 17 17 17 16 16 16 16 16 16 16 16 16 16 17 17 18 18 18 18 18 19 20 20 21 22 22 21 21 21
17 17 17 17 17 17 17 18 18 18 18 18 18 19 18 18 18 18 18 18 17 17 17 17 17 17 18 18 18 18 19 19 20 20 20 21 21 22 23 24 23 22 22
18 18 18 19 19 19 19 19 19 19 19 19 20 20 20 20 20 19 19 19 18 18 18 17 17 18 19 19 19 19 19 20 21 21 22 22 22 23 24 25 24 24 23
20 20 20 20 20 20 20 20 19 19 19 20 20 20 21 21 20 20 20 19 18 19 18 18 18 18 19 20 21 20 20 21 21 22 23 23 24 25 25 25 25 25 24
21 21 21 21 21 20 20 20 19 19 19 19 20 20 20 20 19 19 19 18 18 18 18 18 19 19 20 20 20 21 21 21 22 23 23 24 25 25 25 25 26 25 24
22 22 21 21 21 21 20 20 21 20 20 20 19 19 19 19 19 19 19 19 19 19 19 20 20 20 21 20 20 20 21 22 23 24 24 25 25 25 25 26 25 25 25
23 23 23 22 23 23 22 22 22 21 21 21 20 20 19 19 19 20 20 20 20 20 21 21 21 21 21 21 22 22 22 23 23 24 24 25 25 26 26 26 26 25 25
24 24 24 24 24 24 23 23 22 22 22 21 21 21 20 20 20 21 22 21 21 21 21 21 22 21 21 22 22 23 23 24 24 24 24 25 26 26 26 26 25 25 24
26 26 25 25 25 24 24 24 23 22 23 23 22 22 21 21 21 21 21 22 22 22 22 22 23 23 23 23 23 24 24 25 25 25 26 26 26 26 26 25 24 24 24
28 27 27 26 25 25 24 24 24 24 24 23 23 23 22 23 23 23 23 23 22 23 23 23 24 25 25 25 26 26 26 26 26 27 27 27 27 26 25 25 24 24 23
30 29 27 27 26 26 26 25 25 25 25 25 25 24 24 24 24 25 25 25 24 24 24 24 25 26 27 27 27 27 27 28 28 28 27 27 27 26 25 25 24 24 23
32 30 29 28 28 27 27 27 26 26 26 26 26 26 25 25 25 25 25 26 26 26 25 25 25 26 27 27 28 29 29 28 29 28 28 27 27 26 25 25 25 24 23
32 31 30 29 29 29 29 28 27 27 26 26 25 25 26 25 24 24 25 25 25 25 26 26 26 27 27 28 28 30 30 29 29 28 28 27 26 26 26 26 26 26 25
33 32 31 31 31 31 30 29 28 27 27 26 25 25 26 25 25 25 25 26 26 26 26 27 27 28 28 28 29 29 29 29 28 28 28 27 27 26 26 25 25 26 26
33 33 34 33 33 32 31 30 29 29 28 27 26 26 26 26 26 26 26 27 27 27 28 28 28 28 29 29 29 29 29 29 29 29 28 28 28 27 27 26 26 27 27
35 35 35 35 34 34 32 31 30 30 29 28 28 28 28 27 27 27 28 28 28 28 28 29 29 29 29 29 29 30 30 30 29 28 28 28 27 27 27 27 28 28 27
37 37 37 37 36 36 34 33 32 32 31 30 29 29 29 28 29 29 29 29 29 29 29 29 29 29 29 30 30 30 30 30 29 28 28 28 28 28 28 28 29 28 27
38 37 37 37 37 37 37 36 35 34 33 32 31 30 29 30 30 30 30 30 29 29 29 30 30 30 31 31 30 30 30 30 30 30 29 29 29 29 29 29 28 28 27
39 37 37 37 37 38 38 37 35 34 34 33 33 32 32 31 31 31 31 30 30 31 31 31 32 32 32 32 31 31 30 30 30 29 29 29 29 29 29 29 28 27 27
39 39 38 38 38 38 39 37 36 36 36 35 34 34 33 33 33 32 31 31 31 32 32 32 33 32 32 32 31 31 31 31 30 30 30 30 30 29 29 28 27 27 27
38 39 39 38 38 37 38 38 38 37 36 36 36 36 35 35 35 34 33 33 34 33 33 33 33 32 32 33 32 32 31 32 31 30 29 28 29 29 29 28 28 28 27
38 38 38 37 37 37 37 37 37 37 37 37 37 36 36 36 35 35 35 34 35 35 35 34 34 33 32 32 32 32 33 33 31 30 29 29 29 29 29 29 28 28 27
36 36 36 35 35 35 36 35 35 36 36 37 37 36 36 36 35 34 35 34 34 35 35 35 34 34 33 32 32 33 33 32 31 30 29 30 30 30 29 28 28 27 27
34 35 34 34 33 34 34 33 33 33 34 34 34 34 34 34 34 34 34 34 34 34 34 34 33 33 33 32 32 32 32 32 30 29 29 29 29 29 28 27 27 26 27
33 33 33 32 32 33 33 33 32 32 33 33 33 33 32 33 33 33 33 33 33 33 33 32 32 32 32 32 31 30 30 29 29 29 29 28 27 26 26 26 26 26 26
Wind_Direction
292 293 297 300 302 302 298 297 297 296 295 296 296 295 292 291 291 292 290 291 292 292 292 292 292 293 295 295 296 297 299 301 302 303 305 306 307 307 305 303 299 299 299
287 289 292 296 297 297 295 294 294 294 293 293 293 293 291 288 287 289 289 289 290 291 291 293 293 293 293 294 294 295 296 298 300 302 302 303 305 306 306 305 303 301 299
285 289 292 296 296 295 294 292 291 291 290 289 289 290 288 286 287 288 288 288 287 288 289 290 290 290 290 292 292 293 294 296 299 300 301 301 303 303 304 305 305 302 300
285 288 290 293 293 291 291 290 288 286 284 285 287 287 287 285 285 286 287 287 286 288 288 288 289 290 291 292 292 293 294 296 298 299 299 299 301 302 303 303 302 302 300
281 284 288 290 291 291 291 289 286 285 283 285 287 288 288 285 283 283 286 285 286 286 286 286 288 291 293 294 293 293 294 296 297 298 299 299 300 301 301 301 300 300 299
278 281 283 286 288 289 290 289 289 288 286 288 287 289 288 287 287 287 284 284 285 286 287 288 288 290 292 295 296 294 295 297 297 298 298 299 299 299 301 302 302 299 298
277 279 279 282 285 287 287 288 288 287 289 288 287 289 288 287 287 289 286 283 282 282 286 288 289 288 290 291 292 295 296 298 298 299 300 301 301 300 300 300 300 298 298
274 277 278 280 282 283 284 285 286 288 288 286 286 286 286 286 288 287 285 283 283 284 286 288 290 290 291 290 290 292 294 296 299 301 302 302 303 302 302 301 299 297 296
271 274 277 279 280 282 283 284 284 286 285 284 283 285 284 284 286 286 284 284 285 285 285 286 289 291 293 292 292 293 294 295 297 300 302 303 303 302 301 301 298 297 296
270 272 273 276 279 281 281 282 282 282 283 283 283 283 283 283 282 282 283 282 284 285 285 285 287 289 290 292 293 295 296 296 296 296 299 302 303 303 302 301 300 297 295
272 270 271 273 276 278 280 280 281 281 281 283 283 282 282 281 280 280 281 281 281 282 282 283 285 287 289 290 292 295 296 296 296 297 298 300 301 301 300 300 299 299 298
270 270 270 272 274 276 277 278 280 280 280 281 280 280 280 280 282 282 281 282 281 281 281 283 285 286 288 290 291 293 294 295 295 297 296 298 299 298 297 296 296 298 298
270 270 272 272 273 274 274 275 277 278 279 281 281 280 280 281 282 283 283 284 284 283 282 284 285 286 288 290 291 293 293 293 294 295 296 296 295 295 295 294 294 294 296
269 270 271 272 273 275 276 275 275 274 277 280 281 281 281 281 282 282 283 282 283 284 283 284 284 285 287 290 292 295 294 292 294 295 295 295 295 293 292 293 292 291 293
268 269 271 272 274 276 276 277 276 275 275 278 279 279 279 280 281 281 281 282 281 283 285 285 285 285 286 289 291 291 292 293 294 295 294 293 293 292 292 293 291 292 293
267 269 270 271 273 273 273 276 276 274 274 276 277 277 278 278 279 279 280 280 281 283 285 287 286 285 286 288 290 292 291 292 292 294 294 292 292 292 291 289 290 291 292
267 268 268 269 271 271 271 272 272 272 272 273 275 276 276 277 277 278 279 281 284 286 287 288 287 286 286 287 289 291 291 290 291 292 292 292 291 291 291 288 287 289 291
268 268 268 269 269 269 269 270 271 272 271 271 272 272 273 275 277 278 278 279 281 285 287 288 288 288 289 289 289 291 292 290 289 290 291 291 289 289 289 289 288 289 289
268 268 267 267 269 270 269 269 271 271 271 271 270 270 271 274 276 277 278 279 280 282 284 287 287 288 289 289 289 290 291 291 289 288 289 289 288 289 289 290 289 288 288
267 268 268 267 268 268 269 270 269 269 271 271 270 271 272 275 276 277 278 279 281 282 284 286 288 287 287 287 288 289 291 292 291 289 287 287 288 288 289 290 291 289 288
266 267 268 267 268 267 268 269 268 268 269 269 270 270 272 274 275 276 277 278 279 280 283 284 287 286 285 285 287 289 289 289 290 290 290 289 288 289 290 290 291 290 289
265 265 266 267 267 267 268 269 269 268 267 268 268 270 272 273 273 274 275 277 279 280 281 284 285 284 284 284 286 288 289 289 290 290 291 291 290 289 289 289 289 289 288
263 264 266 266 265 266 267 268 269 268 268 267 269 270 271 272 273 275 277 278 278 280 281 283 284 284 283 283 285 286 287 288 288 289 290 290 289 288 289 288 288 288 287
263 265 266 265 265 266 266 267 267 268 269 269 269 271 272 272 274 275 277 278 279 280 281 282 283 284 284 284 285 286 286 287 287 288 288 287 286 286 285 285 286 286 287
266 266 266 265 265 266 266 267 267 267 268 269 271 272 272 272 274 275 276 277 278 280 281 281 281 281 283 285 286 286 286 286 286 285 285 284 283 282 283 283 284 283 285
267 266 266 265 264 264 265 266 266 267 267 268 270 272 273 272 272 273 275 275 276 277 279 280 281 280 281 283 286 286 286 284 283 283 283 284 282 282 283 284 284 284 285
Height
5890 5890 5890 5889 5888 5888 5887 5886 5885 5885 5884 5883 5883 5882 5882 5881 5881 5880 5880 5879 5879 5878 5878 5877 5877 5876 5876 5875 5874 5873 5872 5871 5870 5869 5867 5866 5865 5863 5861 5859 5857 5855 5854
5887 5887 5887 5886 5885 5884 5883 5883 5882 5881 5880 5880 5879 5878 5878 5877 5877 5876 5876 5875 5875 5874 5874 5873 5873 5872 5871 5870 5870 5869 5868 5867 5866 5865 5863 5862 5860 5858 5856 5854 5852 5850 5848
5883 5883 5883 5882 5882 5881 5880 5879 5878 5877 5876 5876 5875 5874 5873 5873 5873 5872 5871 5871 5870 5869 5869 5868 5868 5867 5867 5866 5865 5864 5863 5862 5861 5860 5858 5856 5855 5853 5850 5848 5846 5844 5842
5879 5879 5879 5878 5877 5877 5876 5875 5874 5873 5872 5871 5870 5870 5869 5868 5868 5867 5866 5866 5865 5864 5864 5863 5863 5863 5862 5861 5860 5859 5858 5857 5856 5854 5853 5851 5849 5847 5845 5842 5840 5838 5836
5875 5875 5874 5874 5873 5872 5871 5869 5869 5868 5867 5866 5865 5865 5864 5863 5862 5861 5861 5860 5860 5859 5859 5859 5858 5858 5857 5856 5855 5854 5853 5852 5850 5849 5847 5845 5843 5841 5839 5836 5834 5832 5830
5870 5870 5869 5869 5868 5867 5866 5865 5864 5863 5862 5861 5861 5860 5859 5858 5857 5856 5856 5856 5856 5855 5854 5854 5854 5853 5852 5851 5850 5849 5847 5846 5845 5843 5841 5839 5837 5835 5832 5830 5827 5826 5824
5865 5864 5864 5863 5862 5862 5861 5860 5859 5858 5858 5857 5856 5855 5854 5853 5853 5852 5851 5851 5850 5850 5850 5849 5849 5848 5847 5846 5845 5843 5842 5840 5839 5837 5835 5833 5830 5828 5826 5823 5821 5819 5817
5859 5858 5858 5857 5857 5856 5855 5855 5854 5853 5852 5851 5850 5850 5849 5848 5848 5847 5846 5845 5845 5845 5844 5844 5843 5842 5842 5841 5839 5838 5836 5835 5833 5831 5829 5827 5824 5822 5819 5817 5815 5813 5811
5852 5852 5852 5852 5851 5850 5850 5849 5848 5847 5846 5846 5845 5845 5844 5843 5842 5841 5841 5840 5840 5839 5839 5838 5837 5837 5836 5835 5834 5832 5831 5829 5827 5825 5823 5821 5818 5815 5813 5811 5809 5807 5805
5845 5845 5845 5845 5845 5844 5843 5842 5842 5841 5840 5840 5839 5839 5838 5837 5836 5835 5835 5834 5834 5834 5833 5832 5831 5831 5830 5828 5827 5826 5824 5822 5820 5819 5817 5814 5812 5809 5807 5805 5802 5800 5799
5838 5838 5838 5838 5837 5837 5836 5836 5835 5835 5834 5834 5833 5832 5832 5832 5831 5830 5829 5828 5828 5827 5827 5826 5825 5824 5823 5821 5820 5819 5817 5815 5813 5811 5809 5807 5805 5803 5800 5798 5796 5794 5793
5830 5830 5829 5830 5830 5830 5829 5829 5828 5828 5828 5827 5827 5826 5826 5825 5825 5824 5823 5822 5821 5821 5820 5819 5818 5817 5816 5814 5812 5811 5809 5807 5805 5804 5802 5800 5798 5796 5794 5792 5790 5788 5786
5821 5822 5822 5821 5822 5822 5821 5821 5821 5821 5821 5820 5820 5819 5819 5818 5818 5817 5815 5815 5814 5813 5813 5812 5811 5810 5808 5807 5805 5803 5801 5799 5798 5796 5794 5792 5790 5788 5786 5785 5783 5782 5780
5812 5813 5813 5813 5814 5814 5813 5813 5813 5813 5813 5813 5812 5812 5811 5811 5811 5810 5808 5807 5807 5806 5805 5804 5804 5802 5801 5799 5798 5796 5794 5792 5790 5788 5786 5784 5783 5781 5779 5778 5777 5775 5774
5804 5804 5804 5805 5805 5805 5805 5805 5806 5806 5805 5805 5805 5804 5804 5803 5803 5802 5801 5801 5800 5799 5798 5797 5796 5795 5793 5792 5790 5788 5786 5784 5782 5780 5778 5777 5775 5773 5772 5771 5769 5768 5767
5795 5795 5796 5796 5797 5797 5797 5797 5798 5798 5797 5797 5797 5796 5796 5796 5795 5794 5794 5793 5792 5791 5790 5789 5788 5786 5785 5784 5782 5780 5778 5776 5774 5772 5770 5769 5767 5766 5764 5763 5762 5761 5759
5785 5786 5786 5787 5787 5788 5788 5789 5789 5789 5788 5788 5788 5788 5788 5787 5787 5786 5786 5785 5784 5783 5782 5781 5779 5778 5777 5776 5774 5772 5770 5768 5766 5764 5762 5761 5759 5758 5756 5755 5754 5753 5752
5775 5776 5776 5777 5777 5778 5778 5779 5779 5779 5779 5779 5780 5779 5779 5779 5778 5778 5777 5777 5776 5775 5774 5773 5771 5770 5769 5767 5766 5764 5762 5760 5758 5756 5754 5753 5751 5750 5749 5747 5746 5745 5744
5764 5765 5765 5766 5767 5767 5768 5768 5768 5768 5769 5769 5769 5769 5769 5769 5769 5769 5768 5768 5767 5766 5766 5764 5763 5762 5760 5759 5757 5755 5753 5751 5749 5748 5746 5744 5743 5741 5740 5739 5738 5737 5735
5753 5754 5754 5755 5756 5756 5757 5756 5757 5758 5758 5759 5759 5760 5760 5760 5760 5760 5759 5759 5758 5758 5757 5756 5754 5753 5751 5750 5748 5746 5745 5743 5741 5739 5737 5736 5735 5733 5732 5731 5729 5728 5727
5742 5743 5743 5744 5744 5745 5746 5746 5747 5747 5748 5749 5749 5750 5750 5750 5750 5750 5750 5750 5749 5748 5747 5746 5745 5743 5742 5740 5739 5738 5736 5735 5733 5731 5729 5728 5726 5725 5724 5723 5721 5720 5719
5730 5731 5731 5732 5733 5733 5734 5735 5736 5737 5737 5738 5739 5739 5739 5740 5740 5740 5740 5740 5740 5739 5738 5737 5735 5733 5732 5731 5730 5729 5727 5726 5724 5722 5720 5719 5718 5717 5715 5714 5713 5712 5711
5718 5719 5720 5721 5722 5722 5723 5724 5725 5725 5726 5727 5727 5728 5729 5729 5730 5730 5729 5729 5729 5728 5728 5726 5725 5724 5723 5721 5720 5719 5718 5716 5715 5713 5712 5711 5709 5708 5707 5706 5705 5703 5702
5706 5707 5708 5709 5710 5711 5712 5712 5714 5715 5715 5716 5717 5717 5718 5718 5718 5719 5719 5718 5718 5718 5717 5716 5715 5714 5712 5711 5710 5709 5708 5707 5706 5704 5703 5702 5700 5699 5698 5697 5696 5695 5694
5695 5697 5697 5698 5700 5701 5702 5702 5703 5704 5705 5705 5706 5706 5707 5707 5708 5708 5708 5707 5707 5707 5706 5705 5705 5704 5703 5702 5700 5699 5699 5697 5696 5695 5693 5692 5691 5690 5689 5688 5687 5686 5685
5686 5687 5688 5688 5690 5691 5692 5692 5693 5694 5694 5695 5696 5696 5696 5697 5697 5697 5697 5697 5696 5696 5696 5695 5695 5694 5693 5692 5691 5690 5689 5688 5687 5685 5684 5683 5682 5681 5680 5679 5678 5678 5677